Time,TemperatureF,DewpointF,PressureIn,WindDirection,WindDirectionDegrees,WindSpeedMPH,WindSpeedGustMPH,Humidity,HourlyPrecipIn,Conditions,Clouds,dailyrainin,SoftwareType,DateUTC
2013-03-26 00:01:00,34.0,17.8,29.97,North,0,0.0,0.0,51,0.00,,,-99.99,VWS V12.07,2013-03-26 05:01:00,
2013-03-26 00:11:00,34.0,17.8,29.97,North,0,0.0,0.0,51,0.00,,,-99.99,VWS V12.07,2013-03-26 05:11:00,
2013-03-26 00:26:00,34.0,17.8,29.97,North,0,0.0,0.0,51,0.00,,,-99.99,VWS V12.07,2013-03-26 05:26:00,
2013-03-26 00:31:00,34.0,17.8,29.97,North,0,0.0,0.0,51,0.00,,,-99.99,VWS V12.07,2013-03-26 05:31:00,
2013-03-26 00:36:00,34.0,17.8,29.97,North,0,0.0,0.0,51,0.00,,,-99.99,VWS V12.07,2013-03-26 05:36:00,
2013-03-26 00:56:00,34.0,17.8,29.97,North,0,0.0,0.0,51,0.00,,,-99.99,VWS V12.07,2013-03-26 05:56:00,
2013-03-26 01:01:00,33.8,17.6,29.97,North,0,0.0,0.0,51,0.00,,,-99.99,VWS V12.07,2013-03-26 06:01:00,
2013-03-26 01:06:00,33.8,17.6,29.97,North,0,0.0,0.0,51,0.00,,,-99.99,VWS V12.07,2013-03-26 06:06:00,
2013-03-26 01:11:00,33.8,17.6,29.97,North,0,0.0,0.0,51,0.00,,,-99.99,VWS V12.07,2013-03-26 06:11:00,
2013-03-26 01:16:00,33.8,17.6,29.97,North,0,0.0,0.0,51,0.00,,,-99.99,VWS V12.07,2013-03-26 06:16:00,
2013-03-26 01:26:00,33.8,17.6,29.97,North,0,0.0,0.0,51,0.00,,,-99.99,VWS V12.07,2013-03-26 06:26:00,
2013-03-26 01:36:00,33.8,17.6,30.00,North,0,0.0,0.0,51,0.00,,,-99.99,VWS V12.07,2013-03-26 06:36:00,
2013-03-26 01:46:00,33.6,17.4,30.00,North,0,0.0,0.0,51,0.00,,,-99.99,VWS V12.07,2013-03-26 06:46:00,
2013-03-26 01:51:00,33.6,17.4,30.00,North,0,0.0,0.0,51,0.00,,,-99.99,VWS V12.07,2013-03-26 06:51:00,
2013-03-26 02:01:00,33.6,17.4,30.00,North,0,0.0,0.0,51,0.00,,,-99.99,VWS V12.07,2013-03-26 07:01:00,
2013-03-26 02:06:00,33.6,17.9,29.97,North,0,0.0,0.0,52,0.00,,,-99.99,VWS V12.07,2013-03-26 07:06:00,
2013-03-26 02:11:00,33.6,17.9,29.97,North,0,0.0,0.0,52,0.00,,,-99.99,VWS V12.07,2013-03-26 07:11:00,
2013-03-26 02:21:00,33.6,17.9,30.00,North,0,0.0,0.0,52,0.00,,,-99.99,VWS V12.07,2013-03-26 07:21:00,
2013-03-26 02:26:00,33.6,17.9,30.00,North,0,0.0,0.0,52,0.00,,,-99.99,VWS V12.07,2013-03-26 07:26:00,
2013-03-26 02:36:00,33.8,18.0,29.97,North,0,0.0,0.0,52,0.00,,,-99.99,VWS V12.07,2013-03-26 07:36:00,
2013-03-26 02:46:00,33.8,18.0,29.97,North,0,0.0,0.0,52,0.00,,,-99.99,VWS V12.07,2013-03-26 07:46:00,
2013-03-26 02:56:00,33.8,18.0,29.97,North,0,0.0,0.0,52,0.00,,,-99.99,VWS V12.07,2013-03-26 07:56:00,
2013-03-26 03:01:00,33.6,17.9,29.97,North,0,0.0,0.0,52,0.00,,,-99.99,VWS V12.07,2013-03-26 08:01:00,
2013-03-26 03:16:00,33.6,17.9,29.97,North,0,0.0,0.0,52,0.00,,,-99.99,VWS V12.07,2013-03-26 08:16:00,
2013-03-26 03:26:00,33.6,17.9,30.00,North,0,0.0,0.0,52,0.00,,,-99.99,VWS V12.07,2013-03-26 08:26:00,
2013-03-26 03:36:00,33.4,17.7,30.00,North,0,0.0,0.0,52,0.00,,,-99.99,VWS V12.07,2013-03-26 08:36:00,
2013-03-26 03:41:00,33.3,17.5,30.00,North,0,0.0,0.0,52,0.00,,,-99.99,VWS V12.07,2013-03-26 08:41:00,
2013-03-26 03:46:00,33.3,17.5,30.00,North,0,0.0,0.0,52,0.00,,,-99.99,VWS V12.07,2013-03-26 08:46:00,
2013-03-26 03:56:00,32.9,17.2,30.00,North,0,0.0,0.0,52,0.00,,,-99.99,VWS V12.07,2013-03-26 08:56:00,
2013-03-26 04:06:00,32.5,17.3,30.00,North,0,0.0,0.0,53,0.00,,,-99.99,VWS V12.07,2013-03-26 09:06:00,
2013-03-26 04:16:00,32.5,17.3,30.00,North,0,0.0,0.0,53,0.00,,,-99.99,VWS V12.07,2013-03-26 09:16:00,
2013-03-26 04:21:00,32.4,17.1,30.00,North,0,0.0,0.0,53,0.00,,,-99.99,VWS V12.07,2013-03-26 09:21:00,
2013-03-26 04:36:00,32.4,17.1,30.00,North,0,0.0,0.0,53,0.00,,,-99.99,VWS V12.07,2013-03-26 09:36:00,
2013-03-26 04:41:00,32.4,17.1,30.00,North,0,0.0,0.0,53,0.00,,,-99.99,VWS V12.07,2013-03-26 09:41:00,
2013-03-26 04:46:00,32.4,17.1,30.00,North,0,0.0,0.0,53,0.00,,,-99.99,VWS V12.07,2013-03-26 09:46:00,
2013-03-26 04:56:00,32.2,17.0,30.00,North,0,0.0,0.0,53,0.00,,,-99.99,VWS V12.07,2013-03-26 09:56:00,
2013-03-26 05:01:00,32.2,17.0,30.00,North,0,0.0,0.0,53,0.00,,,-99.99,VWS V12.07,2013-03-26 10:01:00,
2013-03-26 05:11:00,32.4,17.1,30.00,North,0,0.0,0.0,53,0.00,,,-99.99,VWS V12.07,2013-03-26 10:11:00,
2013-03-26 05:16:00,32.5,17.3,30.00,North,0,0.0,0.0,53,0.00,,,-99.99,VWS V12.07,2013-03-26 10:16:00,
2013-03-26 05:26:00,32.5,17.3,30.00,North,0,0.0,0.0,53,0.00,,,-99.99,VWS V12.07,2013-03-26 10:26:00,
2013-03-26 05:36:00,32.5,17.3,30.00,North,0,0.0,0.0,53,0.00,,,-99.99,VWS V12.07,2013-03-26 10:36:00,
2013-03-26 05:46:00,32.5,17.3,30.00,North,0,0.0,0.0,53,0.00,,,-99.99,VWS V12.07,2013-03-26 10:46:00,
2013-03-26 05:56:00,32.2,17.0,30.00,North,0,0.0,0.0,53,0.00,,,-99.99,VWS V12.07,2013-03-26 10:56:00,
2013-03-26 06:01:00,32.4,17.1,30.00,North,0,0.0,0.0,53,0.00,,,-99.99,VWS V12.07,2013-03-26 11:01:00,
2013-03-26 06:16:00,32.0,16.8,30.00,North,0,0.0,0.0,53,0.00,,,-99.99,VWS V12.07,2013-03-26 11:16:00,
2013-03-26 06:26:00,31.8,17.1,30.03,North,0,0.0,0.0,54,0.00,,,-99.99,VWS V12.07,2013-03-26 11:26:00,
2013-03-26 06:36:00,31.8,17.1,30.03,North,0,0.0,0.0,54,0.00,,,-99.99,VWS V12.07,2013-03-26 11:36:00,
2013-03-26 06:46:00,31.6,16.9,30.03,North,0,0.0,0.0,54,0.00,,,-99.99,VWS V12.07,2013-03-26 11:46:00,
2013-03-26 06:51:00,31.5,16.8,30.03,North,0,0.0,0.0,54,0.00,,,-99.99,VWS V12.07,2013-03-26 11:51:00,
2013-03-26 06:56:00,31.5,16.8,30.03,North,0,0.0,0.0,54,0.00,,,-99.99,VWS V12.07,2013-03-26 11:56:00,
2013-03-26 07:06:00,31.5,16.8,30.03,North,0,0.0,0.0,54,0.00,,,-99.99,VWS V12.07,2013-03-26 12:06:00,
2013-03-26 07:11:00,31.6,16.9,30.03,North,0,0.0,0.0,54,0.00,,,-99.99,VWS V12.07,2013-03-26 12:11:00,
2013-03-26 07:16:00,31.6,16.9,30.03,North,0,0.0,0.0,54,0.00,,,-99.99,VWS V12.07,2013-03-26 12:16:00,
2013-03-26 07:21:00,31.8,17.1,30.03,North,0,0.0,0.0,54,0.00,,,-99.99,VWS V12.07,2013-03-26 12:21:00,
2013-03-26 07:31:00,31.5,16.8,30.03,North,0,0.0,0.0,54,0.00,,,-99.99,VWS V12.07,2013-03-26 12:31:00,
2013-03-26 07:46:00,31.6,16.9,30.03,North,0,0.0,0.0,54,0.00,,,-99.99,VWS V12.07,2013-03-26 12:46:00,
2013-03-26 07:56:00,31.8,17.1,30.06,North,0,0.0,0.0,54,0.00,,,-99.99,VWS V12.07,2013-03-26 12:56:00,
2013-03-26 08:06:00,32.4,17.6,30.06,North,0,0.0,0.0,54,0.00,,,-99.99,VWS V12.07,2013-03-26 13:06:00,
2013-03-26 08:16:00,32.7,17.5,30.06,North,0,0.0,0.0,53,0.00,,,-99.99,VWS V12.07,2013-03-26 13:16:00,
2013-03-26 08:21:00,32.7,17.5,30.06,North,0,0.0,0.0,53,0.00,,,-99.99,VWS V12.07,2013-03-26 13:21:00,
2013-03-26 08:26:00,32.9,17.2,30.06,North,0,0.0,0.0,52,0.00,,,-99.99,VWS V12.07,2013-03-26 13:26:00,
2013-03-26 08:36:00,32.9,16.8,30.06,North,0,0.0,0.0,51,0.00,,,-99.99,VWS V12.07,2013-03-26 13:36:00,
2013-03-26 08:41:00,33.1,16.9,30.06,North,0,0.0,0.0,51,0.00,,,-99.99,VWS V12.07,2013-03-26 13:41:00,
2013-03-26 08:46:00,33.1,16.9,30.06,North,0,0.0,0.0,51,0.00,,,-99.99,VWS V12.07,2013-03-26 13:46:00,
2013-03-26 08:51:00,33.3,16.6,30.06,North,0,0.0,0.0,50,0.00,,,-99.99,VWS V12.07,2013-03-26 13:51:00,
2013-03-26 09:01:00,33.6,17.0,30.06,North,0,0.0,0.0,50,0.00,,,-99.99,VWS V12.07,2013-03-26 14:01:00,
2013-03-26 09:11:00,33.6,16.0,30.06,North,0,0.0,0.0,48,0.00,,,-99.99,VWS V12.07,2013-03-26 14:11:00,
2013-03-26 09:16:00,33.6,16.5,30.06,North,0,0.0,0.0,49,0.00,,,-99.99,VWS V12.07,2013-03-26 14:16:00,
2013-03-26 09:26:00,34.2,16.5,30.06,North,0,0.0,0.0,48,0.00,,,-99.99,VWS V12.07,2013-03-26 14:26:00,
2013-03-26 09:46:00,34.5,16.4,30.06,North,0,0.0,0.0,47,0.00,,,-99.99,VWS V12.07,2013-03-26 14:46:00,
2013-03-26 09:56:00,34.9,16.7,30.06,North,0,0.0,0.0,47,0.00,,,-99.99,VWS V12.07,2013-03-26 14:56:00,
2013-03-26 10:06:00,35.2,16.5,30.09,North,0,0.0,0.0,46,0.00,,,-99.99,VWS V12.07,2013-03-26 15:06:00,
2013-03-26 10:16:00,35.6,16.9,30.09,North,0,0.0,0.0,46,0.00,,,-99.99,VWS V12.07,2013-03-26 15:16:00,
2013-03-26 10:21:00,36.1,17.4,30.09,North,0,0.0,0.0,46,0.00,,,-99.99,VWS V12.07,2013-03-26 15:21:00,
2013-03-26 10:26:00,36.3,17.0,30.09,North,0,0.0,0.0,45,0.00,,,-99.99,VWS V12.07,2013-03-26 15:26:00,
2013-03-26 10:36:00,36.1,16.4,30.09,North,0,0.0,0.0,44,0.00,,,-99.99,VWS V12.07,2013-03-26 15:36:00,
2013-03-26 10:41:00,36.5,16.7,30.09,North,0,0.0,0.0,44,0.00,,,-99.99,VWS V12.07,2013-03-26 15:41:00,
2013-03-26 10:46:00,36.5,16.7,30.09,North,0,0.0,0.0,44,0.00,,,-99.99,VWS V12.07,2013-03-26 15:46:00,
2013-03-26 10:51:00,36.9,17.0,30.09,North,0,0.0,0.0,44,0.00,,,-99.99,VWS V12.07,2013-03-26 15:51:00,
2013-03-26 10:56:00,37.2,17.3,30.09,North,0,0.0,0.0,44,0.00,,,-99.99,VWS V12.07,2013-03-26 15:56:00,
2013-03-26 11:06:00,37.9,17.5,30.09,North,0,0.0,0.0,43,0.00,,,-99.99,VWS V12.07,2013-03-26 16:06:00,
2013-03-26 11:16:00,38.3,17.8,30.09,North,0,0.0,0.0,43,0.00,,,-99.99,VWS V12.07,2013-03-26 16:16:00,
2013-03-26 11:26:00,38.5,17.4,30.09,North,0,0.0,0.0,42,0.00,,,-99.99,VWS V12.07,2013-03-26 16:26:00,
2013-03-26 11:31:00,38.7,17.6,30.09,North,0,0.0,0.0,42,0.00,,,-99.99,VWS V12.07,2013-03-26 16:31:00,
2013-03-26 11:36:00,38.8,17.7,30.09,North,0,0.0,0.0,42,0.00,,,-99.99,VWS V12.07,2013-03-26 16:36:00,
2013-03-26 11:46:00,38.1,17.1,30.09,North,0,0.0,0.0,42,0.00,,,-99.99,VWS V12.07,2013-03-26 16:46:00,
2013-03-26 11:56:00,38.3,17.2,30.09,North,0,0.0,0.0,42,0.00,,,-99.99,VWS V12.07,2013-03-26 16:56:00,
2013-03-26 12:01:00,38.5,17.4,30.09,North,0,0.0,0.0,42,0.00,,,-99.99,VWS V12.07,2013-03-26 17:01:00,
2013-03-26 12:06:00,38.5,17.4,30.09,North,0,0.0,0.0,42,0.00,,,-99.99,VWS V12.07,2013-03-26 17:06:00,
2013-03-26 12:16:00,38.5,17.4,30.09,North,0,0.0,0.0,42,0.00,,,-99.99,VWS V12.07,2013-03-26 17:16:00,
2013-03-26 12:21:00,38.3,17.2,30.09,North,0,0.0,0.0,42,0.00,,,-99.99,VWS V12.07,2013-03-26 17:21:00,
2013-03-26 12:36:00,38.8,17.7,30.09,North,0,0.0,0.0,42,0.00,,,-99.99,VWS V12.07,2013-03-26 17:36:00,
2013-03-26 12:46:00,38.8,17.7,30.09,North,0,0.0,0.0,42,0.00,,,-99.99,VWS V12.07,2013-03-26 17:46:00,
2013-03-26 12:51:00,39.2,18.0,30.09,North,0,0.0,0.0,42,0.00,,,-99.99,VWS V12.07,2013-03-26 17:51:00,
2013-03-26 12:56:00,39.6,18.4,30.09,North,0,0.0,0.0,42,0.00,,,-99.99,VWS V12.07,2013-03-26 17:56:00,
2013-03-26 13:06:00,39.7,18.0,30.09,North,0,0.0,0.0,41,0.00,,,-99.99,VWS V12.07,2013-03-26 18:06:00,
2013-03-26 13:11:00,39.4,17.7,30.09,North,0,0.0,0.0,41,0.00,,,-99.99,VWS V12.07,2013-03-26 18:11:00,
2013-03-26 13:16:00,39.2,17.5,30.09,North,0,0.0,0.0,41,0.00,,,-99.99,VWS V12.07,2013-03-26 18:16:00,
2013-03-26 13:21:00,39.4,18.2,30.09,North,0,0.0,0.0,42,0.00,,,-99.99,VWS V12.07,2013-03-26 18:21:00,
2013-03-26 13:31:00,39.7,18.5,30.09,North,0,0.0,0.0,42,0.00,,,-99.99,VWS V12.07,2013-03-26 18:31:00,
2013-03-26 13:36:00,39.9,18.7,30.06,North,0,0.0,0.0,42,0.00,,,-99.99,VWS V12.07,2013-03-26 18:36:00,
2013-03-26 13:41:00,40.1,18.9,30.06,North,0,0.0,0.0,42,0.00,,,-99.99,VWS V12.07,2013-03-26 18:41:00,
2013-03-26 13:46:00,40.3,19.0,30.06,North,0,0.0,0.0,42,0.00,,,-99.99,VWS V12.07,2013-03-26 18:46:00,
2013-03-26 13:56:00,39.9,18.7,30.06,North,0,0.0,0.0,42,0.00,,,-99.99,VWS V12.07,2013-03-26 18:56:00,
2013-03-26 14:01:00,39.9,18.7,30.06,North,0,0.0,0.0,42,0.00,,,-99.99,VWS V12.07,2013-03-26 19:01:00,
2013-03-26 14:16:00,39.6,18.4,30.06,North,0,0.0,0.0,42,0.00,,,-99.99,VWS V12.07,2013-03-26 19:16:00,
2013-03-26 14:21:00,39.7,18.5,30.06,North,0,0.0,0.0,42,0.00,,,-99.99,VWS V12.07,2013-03-26 19:21:00,
2013-03-26 14:31:00,39.4,18.2,30.06,North,0,0.0,0.0,42,0.00,,,-99.99,VWS V12.07,2013-03-26 19:31:00,
2013-03-26 14:36:00,39.7,18.5,30.06,North,0,0.0,0.0,42,0.00,,,-99.99,VWS V12.07,2013-03-26 19:36:00,
2013-03-26 14:46:00,40.5,19.2,30.06,North,0,0.0,0.0,42,0.00,,,-99.99,VWS V12.07,2013-03-26 19:46:00,
2013-03-26 14:56:00,41.2,19.3,30.06,North,0,0.0,0.0,41,0.00,,,-99.99,VWS V12.07,2013-03-26 19:56:00,
2013-03-26 15:01:00,41.4,19.5,30.06,North,0,0.0,0.0,41,0.00,,,-99.99,VWS V12.07,2013-03-26 20:01:00,
2013-03-26 15:06:00,41.7,20.3,30.06,North,0,0.0,0.0,42,0.00,,,-99.99,VWS V12.07,2013-03-26 20:06:00,
2013-03-26 15:16:00,41.4,19.5,30.06,North,0,0.0,0.0,41,0.00,,,-99.99,VWS V12.07,2013-03-26 20:16:00,
2013-03-26 15:21:00,40.8,19.0,30.06,North,0,0.0,0.0,41,0.00,,,-99.99,VWS V12.07,2013-03-26 20:21:00,
2013-03-26 15:26:00,41.2,19.3,30.06,North,0,0.0,0.0,41,0.00,,,-99.99,VWS V12.07,2013-03-26 20:26:00,
2013-03-26 15:31:00,41.2,19.3,30.06,North,0,0.0,0.0,41,0.00,,,-99.99,VWS V12.07,2013-03-26 20:31:00,
2013-03-26 15:41:00,41.4,19.5,30.09,North,0,0.0,0.0,41,0.00,,,-99.99,VWS V12.07,2013-03-26 20:41:00,
2013-03-26 15:46:00,41.5,19.6,30.09,North,0,0.0,0.0,41,0.00,,,-99.99,VWS V12.07,2013-03-26 20:46:00,
2013-03-26 15:56:00,41.4,18.9,30.06,North,0,0.0,0.0,40,0.00,,,-99.99,VWS V12.07,2013-03-26 20:56:00,
2013-03-26 16:16:00,41.2,18.7,30.09,North,0,0.0,0.0,40,0.00,,,-99.99,VWS V12.07,2013-03-26 21:16:00,
2013-03-26 16:21:00,41.0,19.1,30.09,North,0,0.0,0.0,41,0.00,,,-99.99,VWS V12.07,2013-03-26 21:21:00,
2013-03-26 16:31:00,41.0,19.1,30.09,North,0,0.0,0.0,41,0.00,,,-99.99,VWS V12.07,2013-03-26 21:31:00,
2013-03-26 16:36:00,41.0,19.1,30.09,North,0,0.0,0.0,41,0.00,,,-99.99,VWS V12.07,2013-03-26 21:36:00,
2013-03-26 16:41:00,40.6,18.8,30.09,North,0,0.0,0.0,41,0.00,,,-99.99,VWS V12.07,2013-03-26 21:41:00,
2013-03-26 16:46:00,40.5,18.6,30.09,North,0,0.0,0.0,41,0.00,,,-99.99,VWS V12.07,2013-03-26 21:46:00,
2013-03-26 16:51:00,40.3,18.5,30.09,North,0,0.0,0.0,41,0.00,,,-99.99,VWS V12.07,2013-03-26 21:51:00,
2013-03-26 17:01:00,40.1,18.3,30.09,North,0,0.0,0.0,41,0.00,,,-99.99,VWS V12.07,2013-03-26 22:01:00,
2013-03-26 17:11:00,40.3,18.5,30.09,North,0,0.0,0.0,41,0.00,,,-99.99,VWS V12.07,2013-03-26 22:11:00,
2013-03-26 17:21:00,39.9,18.1,30.09,North,0,0.0,0.0,41,0.00,,,-99.99,VWS V12.07,2013-03-26 22:21:00,
2013-03-26 17:26:00,39.7,18.0,30.09,North,0,0.0,0.0,41,0.00,,,-99.99,VWS V12.07,2013-03-26 22:26:00,
2013-03-26 17:31:00,39.6,17.8,30.09,North,0,0.0,0.0,41,0.00,,,-99.99,VWS V12.07,2013-03-26 22:31:00,
2013-03-26 17:36:00,39.6,17.8,30.09,North,0,0.0,0.0,41,0.00,,,-99.99,VWS V12.07,2013-03-26 22:36:00,
2013-03-26 17:41:00,39.6,17.8,30.09,North,0,0.0,0.0,41,0.00,,,-99.99,VWS V12.07,2013-03-26 22:41:00,
2013-03-26 17:46:00,39.7,18.0,30.09,North,0,0.0,0.0,41,0.00,,,-99.99,VWS V12.07,2013-03-26 22:46:00,
2013-03-26 18:01:00,39.7,18.0,30.09,North,0,0.0,0.0,41,0.00,,,-99.99,VWS V12.07,2013-03-26 23:01:00,
2013-03-26 18:06:00,39.7,18.0,30.09,North,0,0.0,0.0,41,0.00,,,-99.99,VWS V12.07,2013-03-26 23:06:00,
2013-03-26 18:16:00,39.6,17.8,30.09,North,0,0.0,0.0,41,0.00,,,-99.99,VWS V12.07,2013-03-26 23:16:00,
2013-03-26 18:26:00,39.4,17.7,30.09,North,0,0.0,0.0,41,0.00,,,-99.99,VWS V12.07,2013-03-26 23:26:00,
2013-03-26 18:36:00,39.4,17.7,30.09,North,0,0.0,0.0,41,0.00,,,-99.99,VWS V12.07,2013-03-26 23:36:00,
2013-03-26 18:41:00,39.4,17.7,30.09,North,0,0.0,0.0,41,0.00,,,-99.99,VWS V12.07,2013-03-26 23:41:00,
2013-03-26 18:51:00,39.2,17.5,30.09,North,0,0.0,0.0,41,0.00,,,-99.99,VWS V12.07,2013-03-26 23:51:00,
2013-03-26 19:01:00,39.0,17.3,30.09,North,0,0.0,0.0,41,0.00,,,-99.99,VWS V12.07,2013-03-27 00:01:00,
2013-03-26 19:06:00,39.0,17.3,30.09,North,0,0.0,0.0,41,0.00,,,-99.99,VWS V12.07,2013-03-27 00:06:00,
2013-03-26 19:11:00,38.8,17.7,30.09,North,0,0.0,0.0,42,0.00,,,-99.99,VWS V12.07,2013-03-27 00:11:00,
2013-03-26 19:26:00,38.8,17.7,30.09,North,0,0.0,0.0,42,0.00,,,-99.99,VWS V12.07,2013-03-27 00:26:00,
2013-03-26 19:31:00,39.0,17.9,30.09,North,0,0.0,0.0,42,0.00,,,-99.99,VWS V12.07,2013-03-27 00:31:00,
2013-03-26 19:36:00,39.0,17.9,30.09,North,0,0.0,0.0,42,0.00,,,-99.99,VWS V12.07,2013-03-27 00:36:00,
2013-03-26 19:41:00,39.0,17.9,30.09,North,0,0.0,0.0,42,0.00,,,-99.99,VWS V12.07,2013-03-27 00:41:00,
2013-03-26 19:46:00,39.0,17.9,30.09,North,0,0.0,0.0,42,0.00,,,-99.99,VWS V12.07,2013-03-27 00:46:00,
2013-03-26 19:56:00,38.8,17.7,30.12,North,0,0.0,0.0,42,0.00,,,-99.99,VWS V12.07,2013-03-27 00:56:00,
2013-03-26 20:01:00,38.8,17.7,30.12,North,0,0.0,0.0,42,0.00,,,-99.99,VWS V12.07,2013-03-27 01:01:00,
2013-03-26 20:06:00,38.7,18.1,30.12,North,0,0.0,0.0,43,0.00,,,-99.99,VWS V12.07,2013-03-27 01:06:00,
2013-03-26 20:16:00,38.5,17.9,30.12,North,0,0.0,0.0,43,0.00,,,-99.99,VWS V12.07,2013-03-27 01:16:00,
2013-03-26 20:21:00,38.3,17.8,30.12,North,0,0.0,0.0,43,0.00,,,-99.99,VWS V12.07,2013-03-27 01:21:00,
2013-03-26 20:36:00,38.1,17.6,30.12,North,0,0.0,0.0,43,0.00,,,-99.99,VWS V12.07,2013-03-27 01:36:00,
2013-03-26 20:46:00,38.1,17.6,30.12,North,0,0.0,0.0,43,0.00,,,-99.99,VWS V12.07,2013-03-27 01:46:00,
2013-03-26 20:51:00,38.1,17.6,30.12,North,0,0.0,0.0,43,0.00,,,-99.99,VWS V12.07,2013-03-27 01:51:00,
2013-03-26 20:56:00,38.1,17.6,30.12,North,0,0.0,0.0,43,0.00,,,-99.99,VWS V12.07,2013-03-27 01:56:00,
2013-03-26 21:06:00,38.1,17.6,30.12,North,0,0.0,0.0,43,0.00,,,-99.99,VWS V12.07,2013-03-27 02:06:00,
2013-03-26 21:11:00,38.1,17.6,30.12,North,0,0.0,0.0,43,0.00,,,-99.99,VWS V12.07,2013-03-27 02:11:00,
2013-03-26 21:16:00,38.1,17.6,30.12,North,0,0.0,0.0,43,0.00,,,-99.99,VWS V12.07,2013-03-27 02:16:00,
2013-03-26 21:26:00,38.1,17.6,30.12,North,0,0.0,0.0,43,0.00,,,-99.99,VWS V12.07,2013-03-27 02:26:00,
2013-03-26 21:36:00,38.1,18.1,30.12,North,0,0.0,0.0,44,0.00,,,-99.99,VWS V12.07,2013-03-27 02:36:00,
2013-03-26 21:46:00,37.9,18.0,30.12,North,0,0.0,0.0,44,0.00,,,-99.99,VWS V12.07,2013-03-27 02:46:00,
2013-03-26 21:51:00,37.9,18.0,30.12,North,0,0.0,0.0,44,0.00,,,-99.99,VWS V12.07,2013-03-27 02:51:00,
2013-03-26 21:56:00,37.8,17.8,30.12,North,0,0.0,0.0,44,0.00,,,-99.99,VWS V12.07,2013-03-27 02:56:00,
2013-03-26 22:06:00,37.6,17.1,30.12,North,0,0.0,0.0,43,0.00,,,-99.99,VWS V12.07,2013-03-27 03:06:00,
2013-03-26 22:11:00,37.6,17.1,30.12,North,0,0.0,0.0,43,0.00,,,-99.99,VWS V12.07,2013-03-27 03:11:00,
2013-03-26 22:21:00,37.6,17.7,30.12,North,0,0.0,0.0,44,0.00,,,-99.99,VWS V12.07,2013-03-27 03:21:00,
2013-03-26 22:26:00,37.6,17.7,30.12,North,0,0.0,0.0,44,0.00,,,-99.99,VWS V12.07,2013-03-27 03:26:00,
2013-03-26 22:36:00,37.4,17.5,30.12,North,0,0.0,0.0,44,0.00,,,-99.99,VWS V12.07,2013-03-27 03:36:00,
2013-03-26 22:46:00,37.4,17.5,30.12,North,0,0.0,0.0,44,0.00,,,-99.99,VWS V12.07,2013-03-27 03:46:00,
2013-03-26 22:51:00,37.2,17.3,30.12,North,0,0.0,0.0,44,0.00,,,-99.99,VWS V12.07,2013-03-27 03:51:00,
2013-03-26 23:01:00,37.2,17.3,30.12,North,0,0.0,0.0,44,0.00,,,-99.99,VWS V12.07,2013-03-27 04:01:00,
2013-03-26 23:06:00,37.2,17.3,30.12,North,0,0.0,0.0,44,0.00,,,-99.99,VWS V12.07,2013-03-27 04:06:00,
2013-03-26 23:11:00,37.0,17.2,30.12,North,0,0.0,0.0,44,0.00,,,-99.99,VWS V12.07,2013-03-27 04:11:00,
2013-03-26 23:16:00,37.0,17.2,30.12,North,0,0.0,0.0,44,0.00,,,-99.99,VWS V12.07,2013-03-27 04:16:00,
2013-03-26 23:21:00,37.0,17.2,30.12,North,0,0.0,0.0,44,0.00,,,-99.99,VWS V12.07,2013-03-27 04:21:00,
2013-03-26 23:36:00,36.9,17.0,30.12,North,0,0.0,0.0,44,0.00,,,-99.99,VWS V12.07,2013-03-27 04:36:00,
2013-03-26 23:41:00,36.7,16.8,30.12,North,0,0.0,0.0,44,0.00,,,-99.99,VWS V12.07,2013-03-27 04:41:00,
2013-03-26 23:51:00,36.5,16.7,30.12,North,0,0.0,0.0,44,0.00,,,-99.99,VWS V12.07,2013-03-27 04:51:00,
2013-03-26 23:56:00,36.3,16.5,30.12,North,0,0.0,0.0,44,0.00,,,-99.99,VWS V12.07,2013-03-27 04:56:00,